Home > Weather > Miskolc > Past weeks

Flag for Hungary Past Weather in Miskolc, Hungary — Yesterday and Last 2 Weeks

Now
72 °F

Partly sunny.


Feels Like: 72 °F
Forecast: 67 / 85 °F
Wind: No wind

Location: Miskolc

Current Time: Jul 27, 2016 at 9:45:04 AM

Latest Report: Jul 27, 2016 at 8:00 AM


Visibility: 6 mi

Pressure: 30.03 "Hg

Humidity: 80%

Dew Point: 65 °F

Location of MiskolcLocation

Past Weather in Miskolc — Graph

°F

Miskolc Temperature Yesterday

Maximum temperature yesterday: 87 °F (at 6:00 PM)
Minimum temperature yesterday: 66 °F (at 5:00 AM)
Average temperature yesterday: 76 °F

High & Low Weather Summary for the Past Weeks

 TemperatureHumidityPressure
High93 °F (Jul 12, 5:00 PM)94% (Jul 14, 2:00 AM)30.09 "Hg (Jul 14, 2:00 AM)
Low57 °F (Jul 15, 6:00 AM)30% (Jul 12, 3:00 PM)29.67 "Hg (Jul 14, 7:00 AM)
Average71 °F68%29.97 "Hg
* Reported Jul 12 8:00 AM — Jul 27 8:00 AM, Miskolc, Weather by CustomWeather, © 2016

Note: Actual official high and low records may vary slightly from our data, if they occured in-between our weather recording intervals... More about our weather records

Advertising

Miskolc Weather History for the Previous 24 Hours

Scroll right to see more
 ConditionsComfort  
Time TempWeatherWind HumidityBarometerVisibility
8:00 AM
Wed, Jul 27
72 °FPartly sunny.No wind80%30.03 "Hg6 mi
7:00 AM69 °FPartly sunny.1 mph85%30.03 "Hg5 mi
6:00 AM66 °FPartly sunny.No wind89%30.03 "Hg5 mi
5:00 AM66 °FOvercast.No wind88%30.03 "Hg5 mi
4:00 AM66 °FOvercast.No wind88%30.03 "Hg12 mi
3:00 AM67 °FPassing clouds.1 mph88%30.03 "Hg12 mi
2:00 AM67 °FPassing clouds.No wind88%30.03 "Hg11 mi
1:00 AM68 °FOvercast.1 mph89%30.03 "Hg9 mi
12:00 AM67 °FOvercast.1 mph88%30.03 "Hg11 mi
11:00 PM
Tue, Jul 26
68 °FLight rain. Overcast.No wind86%30.02 "Hg11 mi
10:00 PM70 °FLight rain. Overcast.3 mph77%30.03 "Hg11 mi
9:00 PM72 °FThunderstorms. Overcast.1 mph67%30.02 "Hg12 mi
8:00 PM78 °FThunderstorms. Overcast.3 mph62%29.97 "Hg12 mi
7:00 PM80 °FOvercast.2 mph60%29.94 "Hg16 mi
6:00 PM87 °FOvercast.2 mph46%29.93 "Hg16 mi
5:00 PM87 °FPartly sunny.2 mph47%29.93 "Hg16 mi
4:00 PM87 °FPartly sunny.1 mph45%29.93 "Hg16 mi
3:00 PM84 °FPartly sunny.2 mph54%29.94 "Hg16 mi
2:00 PM86 °FThunderstorms. Partly sunny.3 mph48%29.96 "Hg16 mi
1:00 PM86 °FThunderstorms. Scattered clouds.1 mph44%29.96 "Hg9 mi
12:00 PM84 °FScattered clouds.2 mph49%29.98 "Hg16 mi
11:00 AM82 °FScattered clouds.2 mph55%29.98 "Hg16 mi
10:00 AM79 °FPartly sunny.1 mph60%29.98 "Hg16 mi
9:00 AM77 °FPartly sunny.1 mph64%29.98 "Hg16 mi
Weather by CustomWeather, © 2016

See weather overviewHow to use our weather pages